Grand Junction, CO

5:20 AM MDT on October 17, 2019 (GMT -0600)
Walker

Weather History for KGJT - March, 2019

Change the Weather History Date:

Thursday, March 28, 2019

  Actual Average Record
Temperature  
Mean Temperature 54 °F 47 °F  
Max Temperature 68 °F 60 °F 78 °F (2015)
Min Temperature 39 °F 34 °F 11 °F (1975)
Degree Days  
Heating Degree Days 11 18  
Month to date heating degree days 588 599  
Since 1 July heating degree days 5043 4978  
Cooling Degree Days 0 0  
Month to date cooling degree days 0 0  
Year to date cooling degree days 0 0  
Growing Degree Days 5 (Base 50)    
Moisture  
Dew Point 28 °F    
Average Humidity 45    
Maximum Humidity 70    
Minimum Humidity 20    
Precipitation  
Precipitation 0.00 in 0.04 in 0.78 in (1992)
Month to date precipitation 2.28 0.82  
Year to date precipitation 3.72 1.94  
Snow  
Snow 0.00 in 0.10 in 4.30 in (1949)
Month to date snowfall 0.0 2.4  
Since 1 July snowfall 17.4 17.9  
Snow Depth 0.00 in    
Sea Level Pressure  
Sea Level Pressure 29.88 in    
Wind  
Wind Speed 8 mph (ENE)    
Max Wind Speed 21 mph    
Max Gust Speed 25 mph    
Visibility 10 miles    
Events      
T = Trace of Precipitation, MM = Missing Value Source: NWS Daily Summary

Daily Weather History Graph

Daily Weather History Graph

Search for Another Location

Airport or City:

Astronomy

Mar. 28, 2019 Rise Set
Actual Time 7:05 AM MDT 7:33 PM MDT
Civil Twilight 6:38 AM MDT 8:00 PM MDT
Nautical Twilight 6:06 AM MDT 8:32 PM MDT
Astronomical Twilight 5:34 AM MDT 9:04 PM MDT
Moon 2:49 AM MDT (3/28) 12:36 PM MDT (3/28)
Length of Visible Light 13h 22m
Length of Day
12h 28m
Last Quarter, 45% of the Moon is Illuminated
Mar 28
Last Quarter
Apr 5
New
Apr 12
First Quarter
Apr 19
Full
Apr 26
Last Quarter

Hourly Weather History & Observations

Time (MDT) Temp. Windchill Dew Point Humidity Pressure Visibility Wind Dir Wind Speed Gust Speed Precip Events Conditions
12:53 AM 48.9 °F - 30.0 °F 48% 29.88 in 10.0 mi East 5.8 mph - N/A   Clear
1:53 AM 48.9 °F - 28.9 °F 46% 29.88 in 10.0 mi ENE 4.6 mph - N/A   Clear
2:53 AM 45.0 °F - 30.0 °F 56% 29.88 in 10.0 mi Calm Calm - N/A   Clear
3:53 AM 42.1 °F - 30.0 °F 62% 29.90 in 10.0 mi Calm Calm - N/A   Clear
4:53 AM 39.0 °F 34.8 °F 30.0 °F 70% 29.92 in 10.0 mi East 5.8 mph - N/A   Clear
5:53 AM 43.0 °F 36.4 °F 30.0 °F 60% 29.92 in 10.0 mi East 12.7 mph - N/A   Clear
6:53 AM 42.1 °F 37.7 °F 30.0 °F 62% 29.95 in 10.0 mi ENE 6.9 mph - N/A   Clear
7:53 AM 46.9 °F - 30.0 °F 52% 29.97 in 10.0 mi SE 6.9 mph - N/A   Clear
8:53 AM 52.0 °F - 32.0 °F 47% 29.97 in 10.0 mi ESE 6.9 mph - N/A   Clear
9:53 AM 55.9 °F - 28.9 °F 36% 29.97 in 10.0 mi Calm Calm - N/A   Clear
10:53 AM 60.1 °F - 28.9 °F 31% 29.96 in 10.0 mi East 3.5 mph - N/A   Clear
11:53 AM 63.0 °F - 32.0 °F 31% 29.95 in 10.0 mi NW 10.4 mph - N/A   Clear
12:53 PM 64.0 °F - 25.0 °F 23% 29.92 in 10.0 mi WNW 9.2 mph - N/A   Clear
1:53 PM 66.0 °F - 25.0 °F 21% 29.88 in 10.0 mi Variable 4.6 mph - N/A   Clear
2:53 PM 66.9 °F - 25.0 °F 21% 29.87 in 10.0 mi NW 9.2 mph - N/A   Clear
3:53 PM 66.9 °F - 24.1 °F 20% 29.85 in 10.0 mi NW 15.0 mph - N/A   Clear
4:53 PM 64.9 °F - 24.1 °F 21% 29.85 in 10.0 mi NW 19.6 mph - N/A   Clear
5:53 PM 62.1 °F - 23.0 °F 22% 29.85 in 10.0 mi NW 13.8 mph - N/A   Clear
6:53 PM 59.0 °F - 24.1 °F 26% 29.86 in 10.0 mi NW 12.7 mph - N/A   Clear
7:53 PM 54.0 °F - 26.1 °F 34% 29.85 in 10.0 mi NE 9.2 mph - N/A   Clear
8:53 PM 51.1 °F - 26.1 °F 38% 29.83 in 10.0 mi South 5.8 mph - N/A   Clear
9:53 PM 45.0 °F 42.6 °F 28.0 °F 52% 29.82 in 10.0 mi ENE 4.6 mph - N/A   Clear
10:53 PM 45.0 °F 42.6 °F 27.0 °F 49% 29.79 in 10.0 mi ESE 4.6 mph - N/A   Clear
11:53 PM 48.9 °F - 25.0 °F 39% 29.75 in 10.0 mi ESE 9.2 mph - N/A   Clear